Regional Weather Roundup
Issued by NWS Wakefield, VA

Home | Current Version | Previous Version | Graphics & Text | Print | Product List | Glossary On
Versions: 1 2 3 4 5 6 7 8 9 10 11 12 13 14 15 16 17 18 19 20 21 22 23 24 25 26 27
000
ASUS41 KAKQ 220315
RWRAKQ

REGIONAL WEATHER ROUNDUP
NATIONAL WEATHER SERVICE WAKEFIELD VA
1100 PM EDT SAT OCT 21 2017

Note: "fair" indicates few or no clouds below 12,000 feet with no
significant weather and/or obstructions to visibility. * = Denotes
station may not report precipitation (e.g., rain,snow,etc.),
thunder or fog.

VAZ042-051-052>054-056-220400-
NORTHERN VIRGINIA

CITY           SKY/WX    TMP DP  RH WIND       PRES   REMARKS
WASH NATIONAL  MOCLDY    62  50  64 CALM      30.37R
DULLES         PTCLDY    52  47  83 CALM      30.36S
FORT BELVOIR   CLEAR     52  50  94 CALM      30.36S
QUANTICO       CLOUDY    55  54  96 NW8       30.37S
FREDERICKSBRG* CLEAR     55  51  89 CALM      30.35S
STAFFORD*      CLEAR     49  49 100 CALM      30.40S
WARRENTON      CLOUDY    48  43  84 CALM      30.36S
CULPEPER*      CLEAR     53  47  81 CALM      30.37S
MANASSAS*      CLOUDY    49  48  97 CALM      30.37R
LEESBURG*      CLEAR     55  52  88 CALM      30.37S
WINCHESTER     PTCLDY    52  45  76 CALM      30.35S
FRONT ROYAL*   PTCLDY    57  46  67 CALM      30.33F
LURAY*         PTCLDY    55  52  88 CALM      30.35F
$$

VAZ048-049-060>072-079>083-220400-
CENTRAL AND SOUTH CENTRAL VIRGINIA

CITY           SKY/WX    TMP DP  RH WIND       PRES   REMARKS
RICHMOND       CLOUDY    59  52  77 CALM      30.36S
CHESTERFIELD*  NOT AVBL
PETERSBURG*    PTCLDY   N/A N/A N/A CALM      30.36S
HANOVER        CLOUDY    56  54  93 CALM      30.37S
TAPPAHANNOCK*  CLOUDY   N/A N/A N/A CALM      30.37S
QUINTON*       FAIR      56  56 100 CALM      30.35F
CHARLOTTSVILLE CLOUDY    60  54  80 N5        30.35S
GORDONSVILLE*  CLEAR     52  52  99 CALM      30.35S
ORANGE*        CLEAR     52  50  93 CALM      30.36S
LOUISA*        CLEAR     52  48  87 CALM      30.35S
BUMPASS*       FAIR      57  55  90 CALM      30.36R
FARMVILLE*     CLOUDY    56  56 100 CALM      30.34S
CREWE*         FAIR      55  55 100 CALM      30.35S
FORT PICKETT*  FAIR      60  57  89 SE6       30.36S
CHASE CITY*    FAIR      58  58 100 CALM      30.34F
CLARKSVILLE*   FAIR      55  55 100 CALM      30.34S
SOUTH HILL*    CLOUDY    60  56  88 CALM      30.41R
LAWRENCEVILLE* FAIR      61  55  82 CALM      30.35S
EMPORIA*       PTCLDY    54  52  94 CALM      30.37S
$$

VAZ088>098-220400-
SOUTHEAST VIRGINIA

CITY           SKY/WX    TMP DP  RH WIND       PRES   REMARKS
NORFOLK        PTCLDY    59  56  89 CALM      30.36S
VIRGINIA BEACH CLOUDY    56  53  90 SW3       30.36R
NORFOLK NAVAL  MOCLDY    58  54  86 CALM      30.38R
WEST POINT*    PTCLDY    54  54 100 CALM      30.38S
SALUDA*        FAIR      55  55 100 CALM      30.36S
NEWPORT NEWS   MOCLDY    56  54  93 CALM      30.36S
LANGLEY AFB    PTCLDY    58  57  97 CALM      30.36S
FORT EUSTIS    CLOUDY    57  51  80 CALM      30.34S
WILLIAMSBURG*  CLOUDY    61  57  88 SE3       30.37S
HR EXEC AP*    NOT AVBL
FRANKLIN*      CLOUDY    55  52  88 CALM      30.37S
US460-WAKEFLD  PTCLDY    56  55  97 CALM      30.36S
$$

VAZ020-022-025-037-045-220400-
WEST CENTRAL AND SOUTHWEST VIRGINIA

CITY           SKY/WX    TMP DP  RH WIND       PRES   REMARKS
STAUNTON*      PTCLDY    53  49  85 CALM      30.37S
WAYNESBORO*    PTCLDY    59  52  77 S12       30.37S
HOT SPRINGS VA CLOUDY    57  46  67 CALM      30.42S
LYNCHBURG      CLOUDY    56  53  90 CALM      30.35S
DANVILLE       CLOUDY    56  55  97 CALM      30.34S
SOUTH BOSTON*  FAIR      55  54  95 CALM      30.34S
MARTINSVILLE   CLOUDY    51  50  96 CALM      30.38R
ROANOKE        CLOUDY    60  54  80 CALM      30.37S
BLACKSBURG     PTCLDY    56  51  82 E5        30.40F
DUBLIN*        PTCLDY    56  52  87 CALM      30.38S
MARION*        PTCLDY    56  47  70 E5        30.40S
HILLSVILLE*    CLOUDY    59  46  60 CALM      30.38S
RICHLANDS*     FAIR      62  40  44 SE6       30.34S
WISE*          PTCLDY    63  45  51 S5        30.34S
ABINGDON*      PTCLDY    62  48  61 E7        30.33S
$$

MDZ021>025-VAZ099-100-220400-
SOUTHERN MARYLAND AND THE DELMARVA PENINSULA

CITY           SKY/WX    TMP DP  RH WIND       PRES   REMARKS
PATUXENT RIVER CLOUDY    52  49  89 CALM      30.36S
BAY BRIDGE APT PTCLDY    59  54  82 SE3       30.36F
LEONARDTOWN    NOT AVBL
DOVER          CLEAR     57  54  88 S3        30.36F
GEORGETOWN     PTCLDY    55  51  86 CALM      30.38S
EASTON         MOCLDY    57  51  79 CALM      30.40F
CAMBRIDGE      CLEAR     54  50  87 CALM      30.37S
SALISBURY      MOCLDY    55  54  96 CALM      30.37S
OCEAN CITY     PTCLDY    55  55 100 CALM      30.38S
WALLOPS ISLAND CLOUDY    56  56 100 CALM      30.37F
ACCOMACK*      CLEAR     54  54  99 CALM      30.37S
$$

NCZ012>017-030>032-220400-
NORTH CENTRAL AND EASTERN NORTH CAROLINA

CITY           SKY/WX    TMP DP  RH WIND       PRES   REMARKS
ROANOKE RAPIDS FAIR      61  57  88 CALM      30.35S
RALEIGH        MOCLDY    58  55  90 CALM      30.35S
ELIZABETH CITY CLOUDY    61  58  90 E3        30.36S
AHOSKIE*       PTCLDY    59  56  91 CALM      30.36S
EDENTON*       CLOUDY    60  58  92 CALM      30.37S
CURRITUCK*     CLOUDY    58  56  95 CALM      30.37S
KILL DEVIL HLS CLOUDY    66  55  67 CALM      30.35S
MANTEO         CLOUDY   N/A N/A N/A CALM      30.36S
CAPE HATTERAS  CLOUDY    67  62  84 NE6       30.34F
TARBORO*       NOT AVBL
GOLDSBORO      CLOUDY    57  54  90 E5        30.33R FOG
WASHINGTON     PTCLDY    62  58  88 CALM      30.36R
GREENVILLE     CLOUDY    61  59  94 CALM      30.36R
NEW BERN       CLOUDY    60  59  96 CALM      30.36S
WILMINGTON     CLOUDY    61  59  93 CALM      30.33S
$$

VAZ048-220400-
ELSEWHERE

CITY           SKY/WX    TMP DP  RH WIND       PRES   REMARKS
HARRISBURG PA  PTCLDY    54  51  90 CALM      30.35S
BALTIMORE      PTCLDY    52  50  93 CALM      30.36S
ANNAPOLIS      CLEAR     59  56  89 CALM      30.36S
ANDREWS AFB    CLEAR     58  44  59 CALM      30.35S
PHILADELPHIA   MOCLDY    60  47  61 CALM      30.37S
HENDERSON NC   CLEAR     58  52  81 CALM      30.35S
GREENSBORO     MOCLDY    60  55  83 CALM      30.34R
ROCKY MOUNT    CLEAR     56  56 100 CALM      30.35R
$$

VAZ100-220400-
MARINE

STATION/POSITION TIME  TEMP    WIND        PRES    WAVE   SWELL
                       AIR SEA DIR/SP/G            HT/PER HT/PER
                 (UTC) (F)     (DEG/KT/KT) (MB)    (FT/S) (FT/S)
BRANDYWINE LGT   0248          200/  9/ 10 1028.7F
CAPE MAY NJ      0248   64 66  180/  3/  4 1028.0S
LEWES DE         0248   60 66  200/  3/  4 1028.3S
15NM E FENWICK I 0250   67 68  170/  6/  6 1029.0F   2/ 9   2/ 9
OCEAN-CITY-INLET 0248   66 67  190/  4/  5 1029.0S
WACHAPREAGUE VA  0248   60 67   CALM  /  1 1028.3S
THOMAS POINT MD  0300   66 67  130/  6/  6   N/A
GOOSES REEF MD   0300   67 69  140/  8/ 10 1028.0
COVE POINT MD    0248   68     170/  9/ 12 1028.7S
SOLOMONS ISLAND  0248   61 69  320/  2/  2 1027.8R
BISHOPS HEAD MD  0248   66 68  140/  7/  9 1028.6S
PINEY POINT MD   0206          210/  3/  3   N/A
POTOMAC MD       0250   68     160/ 10/ 12 1027.5S
CAMBRIDGE MD     0248                      1029.0F
LEWISETTA VA     0248   60 67  270/  3/  3 1028.0R
RAPPAHANNOCK LGT 0248          120/  6/  6 1028.9R
STINGRAY PT      0250   68     160/  8/ 10 1028.5R
YORK RVR RNG VA  0248   68     170/  5/  7 1028.6R
YORKTOWN VA      0248   64 70  170/  2/  3 1027.8S
JAMESTOWN VA     0250          170/  4/  6   N/A
DOMINION TERM VA 0248   67     150/  4/  5 1028.2F
KIPTOPEKE VA     0248      68  120/  3/  3   N/A
CAPE HENRY VA    0248   67     120/  5/  9   N/A
WILLOUBY STN VA  0248   65     180/  4/  4 1028.1S
S CRANEY ISL VA  0248   66     180/  3/  4 1027.9R
CAPE HENRY BUOY  0230      70                N/A     2/ 8
1ST LANDING BUOY 0300   68 69              1028.1    1/ 3
CAPE CHARLES BUO 0251      70                N/A     2/ 9
64NM E OF VA BCH 0250   68 69   70/  4/  6 1028.6F   3/ 9   3/ 9
DUCK PIER NC     0248   68 70   90/  6/  8 1027.7S
44100 DUCK FRF   0205      71                N/A     2/ 8
44056 DUCK FRF   0230      70                N/A     2/ 8
OREGON INLET NC  0248           50/  6/  7 1027.8R
HATTERAS NC      0248   69 72   50/  5/  7 1027.4F
DIAMOND SHLS NC  0250   74 81  340/  4/  6 1027.3R   3/ 8   3/ 8
CAPE LOOKOUT NC  0200   73      60/  9/ 10 1027.1R
$$




USA.gov is the U.S. government's official web portal to all federal, state and local government web resources and services.